Starlink 31431

operational
NORAD ID: 59002 Int'l Des: 2024-036 Owner: SPXS Country: US Constellation: starlink
LEOCIRCULAR

About Starlink 31431

Description loading...

Live Position

Loading 3D Globe...

Upcoming Passes

Altitude History

Altitude vs Time

uPlot chart will show altitude changes over time

Two-Line Element Set

1 59002U 24036E 25338.67941206 -.00000416 00000-0 -19362-5 0 9996
2 59002 53.1592 159.6653 0001021 83.0418 277.0698 15.30187014100770
Epoch: Dec 4, 2025 • Age: 11 hours

Current Status

Altitude 477.2 km
Velocity 7.63 km/s
Sub-Earth Point -6.21°S, 30.03°E
Launch Date Feb 23, 2024
Age 1.7 years
Type internet

Technical Details

Classification Payload
Mass 730.00 kg
Dry Mass 700.00 kg
Total Mass 730.00 kg
Length 0.30 m
Diameter 4.10 m
Span 29.00 m
Shape Box + pan
Manufacturer SPXS
Bus Type Starlink V2M
Phase Status In Orbit
Owner/State SPXS/US

Large Constellations

Loading constellations...